FJI852 PHNL-NSFA

Flight info

Callsign FJI852
Flight time N/A
Altitude 33000
Route OPIHI3 CARRP DCT DATBE/N0468F320 G347 DASNE/N0467F340 G347 DULCE/N0463F360 G347 PUPIS A592 SAMVU SAMVU2B
Aircraft B38M/M-SDE1FGHIJ4J7LMRWXZ/LB1

Departure

Time 2026-05-07 22:11
Airport Daniel K. Inouye International Airport (PHNL)

Arrival

Time N/A
Airport Faleolo International Airport (NSFA)
Time Latitude Longitude Altitude Speed Heading
2026-05-07 21:21 21.33128 -157.92123 26 ft 0 kts
2026-05-07 21:58 21.33111 -157.92126 26 ft 4 kts
2026-05-07 21:58 21.33090 -157.92129 26 ft 4 kts
2026-05-07 21:59 21.33063 -157.92134 26 ft 4 kts
2026-05-07 21:59 21.33036 -157.92139 26 ft 4 kts
2026-05-07 21:59 21.33015 -157.92142 26 ft 4 kts
2026-05-07 21:59 21.32988 -157.92147 26 ft 4 kts
2026-05-07 22:00 21.32961 -157.92152 26 ft 4 kts
2026-05-07 22:00 21.32935 -157.92156 26 ft 4 kts
2026-05-07 22:00 21.32908 -157.92161 26 ft 4 kts
2026-05-07 22:00 21.32882 -157.92165 26 ft 4 kts
2026-05-07 22:01 21.32856 -157.92170 26 ft 4 kts
2026-05-07 22:01 21.32829 -157.92172 26 ft 4 kts 358°
2026-05-07 22:01 21.32803 -157.92168 27 ft 4 kts 342°
2026-05-07 22:01 21.32780 -157.92155 27 ft 4 kts 310°
2026-05-07 22:02 21.32773 -157.92132 26 ft 4 kts 270°
2026-05-07 22:02 21.32773 -157.92106 26 ft 1 kts 270°
2026-05-07 22:05 21.32774 -157.92146 27 ft 11 kts 271°
2026-05-07 22:05 21.32774 -157.92258 27 ft 17 kts 270°
2026-05-07 22:05 21.32774 -157.92391 27 ft 18 kts 270°
2026-05-07 22:05 21.32774 -157.92532 27 ft 19 kts 271°
2026-05-07 22:06 21.32775 -157.92677 27 ft 20 kts 269°
2026-05-07 22:06 21.32745 -157.92823 27 ft 20 kts 265°
2026-05-07 22:06 21.32744 -157.92978 27 ft 21 kts 270°
2026-05-07 22:06 21.32743 -157.93138 27 ft 22 kts 270°
2026-05-07 22:07 21.32743 -157.93304 27 ft 22 kts 270°
2026-05-07 22:07 21.32742 -157.93474 27 ft 23 kts 270°
2026-05-07 22:07 21.32742 -157.93648 27 ft 24 kts 270°
2026-05-07 22:07 21.32742 -157.93823 27 ft 19 kts 270°
2026-05-07 22:08 21.32742 -157.93968 27 ft 20 kts 270°
2026-05-07 22:08 21.32742 -157.94118 27 ft 21 kts 270°
2026-05-07 22:08 21.32742 -157.94247 27 ft 14 kts 270°
2026-05-07 22:08 21.32728 -157.94317 27 ft 9 kts 217°
2026-05-07 22:09 21.32664 -157.94325 27 ft 10 kts 179°
2026-05-07 22:09 21.32592 -157.94326 27 ft 11 kts 181°
2026-05-07 22:09 21.32532 -157.94324 27 ft 5 kts 154°
2026-05-07 22:09 21.32525 -157.94291 27 ft 6 kts 90°
2026-05-07 22:10 21.32525 -157.94144 27 ft 49 kts 90°
2026-05-07 22:10 21.32525 -157.93511 27 ft 116 kts 90°
2026-05-07 22:10 21.32526 -157.92454 29 ft 168 kts 90°
2026-05-07 22:10 21.32518 -157.91142 492 ft 179 kts 90°
2026-05-07 22:11 21.32366 -157.89813 1217 ft 184 kts 113°
2026-05-07 22:11 21.31477 -157.88805 1788 ft 196 kts 152°
2026-05-07 22:11 21.30082 -157.88459 2214 ft 220 kts 173°
2026-05-07 22:11 21.28474 -157.88345 2657 ft 243 kts 174°
2026-05-07 22:12 21.26751 -157.88242 3399 ft 249 kts 174°
2026-05-07 22:12 21.24969 -157.88139 4048 ft 265 kts 174°
2026-05-07 22:12 21.23084 -157.88024 4789 ft 273 kts 174°
2026-05-07 22:12 21.21178 -157.87980 5586 ft 280 kts 185°
2026-05-07 22:13 21.19351 -157.88678 5998 ft 281 kts 215°
2026-05-07 22:13 21.18026 -157.90199 6888 ft 283 kts 236°
2026-05-07 22:13 21.16982 -157.92042 7547 ft 292 kts 238°
2026-05-07 22:13 21.15927 -157.93897 8390 ft 293 kts 238°
2026-05-07 22:14 21.14867 -157.95758 9103 ft 297 kts 238°
2026-05-07 22:14 21.13795 -157.97706 9870 ft 302 kts 239°
2026-05-07 22:14 21.12725 -157.99662 10493 ft 311 kts 239°
2026-05-07 22:14 21.11609 -158.01688 10780 ft 330 kts 239°
2026-05-07 22:15 21.10417 -158.03848 11163 ft 344 kts 239°
2026-05-07 22:15 21.09178 -158.06086 11787 ft 349 kts 239°
2026-05-07 22:15 21.07934 -158.08324 12474 ft 352 kts 239°
2026-05-07 22:15 21.06671 -158.10585 13087 ft 356 kts 239°
2026-05-07 22:16 21.05393 -158.12867 13702 ft 359 kts 239°
2026-05-07 22:16 21.04100 -158.15167 14295 ft 363 kts 239°
2026-05-07 22:16 21.02790 -158.17489 14862 ft 366 kts 239°
2026-05-07 22:16 21.01465 -158.19832 15430 ft 369 kts 239°
2026-05-07 22:17 21.00125 -158.22193 15958 ft 373 kts 239°
2026-05-07 22:17 20.98763 -158.24565 16482 ft 376 kts 236°
2026-05-07 22:17 20.97015 -158.26646 16974 ft 380 kts 219°
2026-05-07 22:17 20.94742 -158.28090 17449 ft 383 kts 201°
2026-05-07 22:18 20.92222 -158.29053 17884 ft 387 kts 201°
2026-05-07 22:18 20.87150 -158.31125 18763 ft 393 kts 201°
2026-05-07 22:18 20.84582 -158.32161 19195 ft 396 kts 201°
2026-05-07 22:19 20.81997 -158.33202 19603 ft 399 kts 201°
2026-05-07 22:19 20.79382 -158.34253 20014 ft 402 kts 201°
2026-05-07 22:19 20.76753 -158.35310 20430 ft 405 kts 201°
2026-05-07 22:19 20.74117 -158.36369 20841 ft 408 kts 201°
2026-05-07 22:20 20.71449 -158.37440 21241 ft 411 kts 201°
2026-05-07 22:20 20.68763 -158.38518 21629 ft 414 kts 201°
2026-05-07 22:20 20.66055 -158.39604 22008 ft 417 kts 201°
2026-05-07 22:20 20.63333 -158.40696 22383 ft 419 kts 201°
2026-05-07 22:21 20.60593 -158.41795 22741 ft 422 kts 201°
2026-05-07 22:21 20.57836 -158.42899 23114 ft 424 kts 201°
2026-05-07 22:21 20.55065 -158.44009 23453 ft 427 kts 201°
2026-05-07 22:21 20.52271 -158.45128 23798 ft 430 kts 201°
2026-05-07 22:22 20.49473 -158.46248 24151 ft 433 kts 201°
2026-05-07 22:22 20.46645 -158.47380 24501 ft 435 kts 201°
2026-05-07 22:22 20.43800 -158.48518 24850 ft 437 kts 201°
2026-05-07 22:22 20.40944 -158.49659 25194 ft 440 kts 201°
2026-05-07 22:23 20.38070 -158.50808 25564 ft 441 kts 201°
2026-05-07 22:23 20.35188 -158.51959 25895 ft 443 kts 201°
2026-05-07 22:23 20.32292 -158.53116 26216 ft 446 kts 201°
2026-05-07 22:23 20.29381 -158.54277 26530 ft 448 kts 201°
2026-05-07 22:24 20.26464 -158.55441 26863 ft 450 kts 201°
2026-05-07 22:24 20.23529 -158.56612 27158 ft 452 kts 201°
2026-05-07 22:24 20.20577 -158.57789 27457 ft 454 kts 201°
2026-05-07 22:24 20.17613 -158.58970 27752 ft 456 kts 201°
2026-05-07 22:25 20.14639 -158.60155 28037 ft 458 kts 201°
2026-05-07 22:25 20.11649 -158.61346 28330 ft 459 kts 201°
2026-05-07 22:25 20.08651 -158.62539 28605 ft 461 kts 201°
2026-05-07 22:25 20.05642 -158.63736 28881 ft 463 kts 201°
2026-05-07 22:26 20.02619 -158.64939 29148 ft 465 kts 201°
2026-05-07 22:26 19.99586 -158.66144 29408 ft 466 kts 201°
2026-05-07 22:26 19.96539 -158.67355 29674 ft 468 kts 201°
2026-05-07 22:26 19.93485 -158.68568 29949 ft 469 kts 201°
2026-05-07 22:27 19.90423 -158.69784 30198 ft 471 kts 201°
2026-05-07 22:27 19.87346 -158.71005 30435 ft 473 kts 201°
2026-05-07 22:27 19.84259 -158.72230 30680 ft 474 kts 201°
2026-05-07 22:27 19.81166 -158.73456 30923 ft 475 kts 201°
2026-05-07 22:28 19.78064 -158.74686 31161 ft 477 kts 201°
2026-05-07 22:28 19.74955 -158.75918 31395 ft 478 kts 201°
2026-05-07 22:28 19.71832 -158.77154 31609 ft 479 kts 201°
2026-05-07 22:28 19.68706 -158.78392 31867 ft 480 kts 201°
2026-05-07 22:29 19.65582 -158.79628 32186 ft 478 kts 201°
2026-05-07 22:29 19.62466 -158.80861 32488 ft 477 kts 201°
2026-05-07 22:29 19.59359 -158.82089 32790 ft 476 kts 201°
2026-05-07 22:29 19.56267 -158.83311 33097 ft 475 kts 201°
2026-05-07 22:30 19.53174 -158.84534 33374 ft 474 kts 201°
2026-05-07 22:30 19.50082 -158.85754 33653 ft 473 kts 202°
2026-05-07 22:30 19.47042 -158.86954 33937 ft 472 kts 201°
2026-05-07 22:30 19.43965 -158.88169 34203 ft 471 kts 202°
2026-05-07 22:31 19.40899 -158.89378 34466 ft 470 kts 202°
2026-05-07 22:31 19.37839 -158.90584 34723 ft 468 kts 202°
2026-05-07 22:31 19.34789 -158.91786 34960 ft 468 kts 202°
2026-05-07 22:31 19.31753 -158.92983 35157 ft 467 kts 202°
2026-05-07 22:32 19.28703 -158.94184 35180 ft 467 kts 202°
2026-05-07 22:32 19.22636 -158.96572 35174 ft 464 kts 202°
2026-05-07 22:33 19.16573 -158.98956 35164 ft 464 kts 202°
2026-05-07 22:33 19.10524 -159.01333 35164 ft 464 kts 202°
2026-05-07 22:34 19.04480 -159.03706 35165 ft 463 kts 202°
2026-05-07 22:34 18.98439 -159.06076 35166 ft 463 kts 202°
2026-05-07 22:35 18.92402 -159.08443 35165 ft 463 kts 202°
2026-05-07 22:35 18.86370 -159.10805 35165 ft 462 kts 202°
2026-05-07 22:36 18.81353 -159.12769 35166 ft 462 kts 202°
2026-05-07 22:36 18.75325 -159.15127 35160 ft 462 kts 202°
2026-05-07 22:37 18.68319 -159.17866 35166 ft 462 kts 202°
2026-05-07 22:37 18.63270 -159.19838 35165 ft 461 kts 202°
2026-05-07 22:38 18.57259 -159.22184 35164 ft 461 kts 202°
2026-05-07 22:38 18.51244 -159.24529 35163 ft 461 kts 202°
2026-05-07 22:39 18.45263 -159.26861 35165 ft 460 kts 202°
2026-05-07 22:39 18.39265 -159.29196 35165 ft 461 kts 202°
2026-05-07 22:40 18.33245 -159.31538 35166 ft 460 kts 202°
2026-05-07 22:40 18.27240 -159.33874 35165 ft 460 kts 202°
2026-05-07 22:41 18.21229 -159.36209 35156 ft 460 kts 202°
2026-05-07 22:41 18.15230 -159.38538 35157 ft 460 kts 202°
2026-05-07 22:42 18.09228 -159.40867 35156 ft 460 kts 202°
2026-05-07 22:42 18.03223 -159.43195 35156 ft 459 kts 202°
2026-05-07 22:43 17.97228 -159.45518 35158 ft 459 kts 203°
2026-05-07 22:43 17.91254 -159.47830 35141 ft 457 kts 203°
2026-05-07 22:44 17.85313 -159.50128 35149 ft 458 kts 203°
2026-05-07 22:44 17.79344 -159.52436 35144 ft 457 kts 203°
2026-05-07 22:45 17.73451 -159.54913 35156 ft 456 kts 206°
2026-05-07 22:45 17.67621 -159.57548 35146 ft 456 kts 206°
2026-05-07 22:46 17.61787 -159.60158 35147 ft 456 kts 206°
2026-05-07 22:46 17.55951 -159.62766 35142 ft 456 kts 206°
2026-05-07 22:47 17.50118 -159.65370 35146 ft 456 kts 206°
2026-05-07 22:47 17.44285 -159.67973 35147 ft 455 kts 206°
2026-05-07 22:48 17.38458 -159.70570 35143 ft 455 kts 206°
2026-05-07 22:48 17.32631 -159.73167 35147 ft 455 kts 206°
2026-05-07 22:49 17.26810 -159.75758 35146 ft 454 kts 206°
2026-05-07 22:49 17.21005 -159.78341 35147 ft 454 kts 206°
2026-05-07 22:50 17.15192 -159.80925 35146 ft 454 kts 206°
2026-05-07 22:50 17.09382 -159.83507 35145 ft 453 kts 206°
2026-05-07 22:51 17.03581 -159.86083 35138 ft 453 kts 206°
2026-05-07 22:51 16.97784 -159.88654 35136 ft 452 kts 206°
2026-05-07 22:52 16.91998 -159.91220 35135 ft 452 kts 206°
2026-05-07 22:52 16.86249 -159.93768 35138 ft 451 kts 206°
2026-05-07 22:53 16.80478 -159.96323 35130 ft 450 kts 206°
2026-05-07 22:53 16.74713 -159.98875 35084 ft 450 kts 206°
2026-05-07 22:54 16.68943 -160.01426 35082 ft 450 kts 206°
2026-05-07 22:54 16.63180 -160.03974 35077 ft 450 kts 206°
2026-05-07 22:55 16.57410 -160.06521 35082 ft 449 kts 206°
2026-05-07 22:55 16.51659 -160.09059 35084 ft 448 kts 206°
2026-05-07 22:56 16.45906 -160.11597 35083 ft 449 kts 206°
2026-05-07 22:56 16.40155 -160.14132 35075 ft 448 kts 206°
2026-05-07 22:57 16.34411 -160.16662 35078 ft 448 kts 206°
2026-05-07 22:57 16.28716 -160.19170 35082 ft 448 kts 206°
2026-05-07 22:58 16.22980 -160.21693 35083 ft 448 kts 206°
2026-05-07 22:58 16.17235 -160.24219 35077 ft 448 kts 206°
2026-05-07 22:59 16.11495 -160.26741 35082 ft 447 kts 206°
2026-05-07 22:59 16.05760 -160.29259 35085 ft 447 kts 206°
2026-05-07 23:00 16.00023 -160.31776 35085 ft 447 kts 206°
2026-05-07 23:00 15.94287 -160.34293 35073 ft 447 kts 206°
2026-05-07 23:01 15.88552 -160.36806 35076 ft 447 kts 206°
2026-05-07 23:01 15.82826 -160.39314 35067 ft 447 kts 206°
2026-05-07 23:02 15.77095 -160.41823 35068 ft 447 kts 206°
2026-05-07 23:02 15.71353 -160.44335 35072 ft 447 kts 206°
2026-05-07 23:03 15.65617 -160.46843 35076 ft 448 kts 206°
2026-05-07 23:03 15.59878 -160.49350 35071 ft 448 kts 206°
2026-05-07 23:04 15.54139 -160.51857 35072 ft 447 kts 206°
2026-05-07 23:04 15.48443 -160.54343 35074 ft 447 kts 206°
2026-05-07 23:05 15.42705 -160.56845 35075 ft 447 kts 206°
2026-05-07 23:05 15.36973 -160.59343 35070 ft 447 kts 206°
2026-05-07 23:06 15.31231 -160.61845 35070 ft 447 kts 206°
2026-05-07 23:06 15.25493 -160.64343 35068 ft 447 kts 206°
2026-05-07 23:07 15.19753 -160.66841 35072 ft 447 kts 206°
2026-05-07 23:07 15.14028 -160.69330 35072 ft 447 kts 206°
2026-05-07 23:08 15.08290 -160.71824 35066 ft 447 kts 206°
2026-05-07 23:08 15.02552 -160.74317 35062 ft 447 kts 206°
2026-05-07 23:09 14.96818 -160.76806 35060 ft 447 kts 206°
2026-05-07 23:09 14.91091 -160.79290 35065 ft 447 kts 206°
2026-05-07 23:10 14.85383 -160.81765 35065 ft 447 kts 206°
2026-05-07 23:10 14.79649 -160.84249 35065 ft 447 kts 206°
2026-05-07 23:11 14.73920 -160.86731 35061 ft 446 kts 206°
2026-05-07 23:11 14.68196 -160.89208 35065 ft 447 kts 206°
2026-05-07 23:12 14.62468 -160.91686 35065 ft 446 kts 206°
2026-05-07 23:12 14.56738 -160.94163 35065 ft 446 kts 206°
2026-05-07 23:13 14.51009 -160.96639 35065 ft 446 kts 206°
2026-05-07 23:13 14.45290 -160.99109 35062 ft 446 kts 206°
2026-05-07 23:14 14.39550 -161.01586 35056 ft 447 kts 206°
2026-05-07 23:14 14.33819 -161.04059 35056 ft 447 kts 206°
2026-05-07 23:15 14.28081 -161.06532 35055 ft 447 kts 206°
2026-05-07 23:15 14.22344 -161.09005 35057 ft 447 kts 206°
2026-05-07 23:16 14.16605 -161.11476 35055 ft 447 kts 206°
2026-05-07 23:16 14.10874 -161.13942 35053 ft 446 kts 206°
2026-05-07 23:17 14.05177 -161.16393 35052 ft 447 kts 206°
2026-05-07 23:17 13.99439 -161.18860 35056 ft 447 kts 206°
2026-05-07 23:18 13.93700 -161.21327 35055 ft 446 kts 206°
2026-05-07 23:18 13.87973 -161.23786 35056 ft 446 kts 206°
2026-05-07 23:19 13.82246 -161.26245 35054 ft 446 kts 206°
2026-05-07 23:19 13.77496 -161.28282 35055 ft 446 kts 206°
2026-05-07 23:20 13.71768 -161.30739 35050 ft 446 kts 206°
2026-05-07 23:20 13.66034 -161.33197 35045 ft 446 kts 206°
2026-05-07 23:21 13.60302 -161.35652 35043 ft 446 kts 206°
2026-05-07 23:21 13.54585 -161.38100 35047 ft 446 kts 206°
2026-05-07 23:22 13.48844 -161.40557 35045 ft 446 kts 206°
2026-05-07 23:22 13.43103 -161.43012 35037 ft 446 kts 206°
2026-05-07 23:23 13.37407 -161.45447 35036 ft 446 kts 206°
2026-05-07 23:23 13.31670 -161.47898 35036 ft 446 kts 206°
2026-05-07 23:24 13.25947 -161.50343 35035 ft 446 kts 206°
2026-05-07 23:24 13.20216 -161.52789 35035 ft 446 kts 206°
2026-05-07 23:25 13.14487 -161.55233 35035 ft 446 kts 206°
2026-05-07 23:25 13.08757 -161.57676 35036 ft 446 kts 206°
2026-05-07 23:26 13.03030 -161.60117 35035 ft 446 kts 206°
2026-05-07 23:26 12.97307 -161.62555 35037 ft 445 kts 205°
2026-05-07 23:27 12.88722 -161.66210 35037 ft 445 kts 205°
2026-05-07 23:27 12.83009 -161.68640 35026 ft 445 kts 205°
2026-05-07 23:28 12.77281 -161.71076 35028 ft 445 kts 205°
2026-05-07 23:28 12.71556 -161.73509 35027 ft 444 kts 205°
2026-05-07 23:29 12.65885 -161.75918 35027 ft 445 kts 205°
2026-05-07 23:29 12.60174 -161.78343 35026 ft 444 kts 205°
2026-05-07 23:30 12.54461 -161.80768 35027 ft 444 kts 205°
2026-05-07 23:30 12.48747 -161.83191 35026 ft 444 kts 205°
2026-05-07 23:31 12.43033 -161.85614 35027 ft 444 kts 205°
2026-05-07 23:31 12.37330 -161.88031 35027 ft 444 kts 205°
2026-05-07 23:32 12.31623 -161.90449 35026 ft 444 kts 205°
2026-05-07 23:32 12.25912 -161.92867 35027 ft 444 kts 205°
2026-05-07 23:33 12.20202 -161.95283 35018 ft 444 kts 205°
2026-05-07 23:33 12.14496 -161.97697 35017 ft 444 kts 205°
2026-05-07 23:34 12.08783 -162.00112 35017 ft 444 kts 205°
2026-05-07 23:34 12.03073 -162.02525 35016 ft 444 kts 205°
2026-05-07 23:35 11.97371 -162.04934 35016 ft 444 kts 205°
2026-05-07 23:35 11.91671 -162.07341 35017 ft 444 kts 205°
2026-05-07 23:36 11.85958 -162.09752 35016 ft 444 kts 205°
2026-05-07 23:36 11.80285 -162.12145 35016 ft 444 kts 205°
2026-05-07 23:37 11.74573 -162.14553 35016 ft 444 kts 205°
2026-05-07 23:37 11.68861 -162.16960 35016 ft 444 kts 205°
2026-05-07 23:38 11.63146 -162.19368 35015 ft 444 kts 205°
2026-05-07 23:38 11.57434 -162.21773 35004 ft 444 kts 205°
2026-05-07 23:39 11.51722 -162.24177 35008 ft 444 kts 205°
2026-05-07 23:39 11.46013 -162.26579 35012 ft 445 kts 205°
2026-05-07 23:40 11.40287 -162.28988 35004 ft 445 kts 205°
2026-05-07 23:40 11.34564 -162.31393 35006 ft 445 kts 205°
2026-05-07 23:41 11.28832 -162.33801 35001 ft 445 kts 205°
2026-05-07 23:41 11.23112 -162.36203 35005 ft 446 kts 205°
2026-05-07 23:42 11.17369 -162.38614 35012 ft 446 kts 205°
2026-05-07 23:42 11.11633 -162.41021 35006 ft 446 kts 205°
2026-05-07 23:43 11.05893 -162.43428 35009 ft 446 kts 205°
2026-05-07 23:43 11.00157 -162.45833 35003 ft 446 kts 205°
2026-05-07 23:44 10.94409 -162.48242 35000 ft 447 kts 205°
2026-05-07 23:44 10.88657 -162.50652 34994 ft 447 kts 205°
2026-05-07 23:45 10.82899 -162.53063 35000 ft 448 kts 205°
2026-05-07 23:45 10.77153 -162.55468 35000 ft 448 kts 205°
2026-05-07 23:46 10.71394 -162.57878 34998 ft 447 kts 205°
2026-05-07 23:46 10.65631 -162.60288 34999 ft 448 kts 205°
2026-05-07 23:47 10.59870 -162.62697 34998 ft 448 kts 205°
2026-05-07 23:47 10.54114 -162.65102 34995 ft 448 kts 205°
2026-05-07 23:48 10.48344 -162.67512 35004 ft 448 kts 205°
2026-05-07 23:48 10.42576 -162.69921 34995 ft 448 kts 205°
2026-05-07 23:49 10.36811 -162.72327 34994 ft 448 kts 205°
2026-05-07 23:49 10.31045 -162.74733 34990 ft 449 kts 205°
2026-05-07 23:50 10.25272 -162.77141 34983 ft 448 kts 205°
2026-05-07 23:50 10.19532 -162.79532 34988 ft 449 kts 205°
2026-05-07 23:51 10.13749 -162.81942 34988 ft 449 kts 205°
2026-05-07 23:51 10.07980 -162.84345 34985 ft 449 kts 205°
2026-05-07 23:52 10.02206 -162.86750 34990 ft 449 kts 205°
2026-05-07 23:52 9.96425 -162.89157 34988 ft 449 kts 205°
2026-05-07 23:53 9.90640 -162.91564 34984 ft 450 kts 205°
2026-05-07 23:53 9.84853 -162.93972 34987 ft 450 kts 205°
2026-05-07 23:54 9.79067 -162.96378 34987 ft 450 kts 205°
2026-05-07 23:54 9.73277 -162.98785 34981 ft 450 kts 205°
2026-05-07 23:55 9.67477 -163.01195 34981 ft 450 kts 205°
2026-05-07 23:55 9.61721 -163.03586 34981 ft 450 kts 205°
2026-05-07 23:56 9.55936 -163.05988 34979 ft 450 kts 205°
2026-05-07 23:56 9.50145 -163.08392 34981 ft 450 kts 205°
2026-05-07 23:57 9.44351 -163.10796 34981 ft 450 kts 205°
2026-05-07 23:57 9.38554 -163.13200 34980 ft 450 kts 205°
2026-05-07 23:58 9.32751 -163.15607 34981 ft 450 kts 205°
2026-05-07 23:58 9.26953 -163.18010 34981 ft 450 kts 205°
2026-05-07 23:59 9.21154 -163.20412 34981 ft 450 kts 204°
2026-05-07 23:59 9.15374 -163.22806 34981 ft 450 kts 204°
2026-05-08 00:00 9.09614 -163.25191 34980 ft 450 kts 204°
2026-05-08 00:00 9.03819 -163.27590 34974 ft 450 kts 204°
2026-05-08 00:01 8.98025 -163.29987 34972 ft 450 kts 204°
2026-05-08 00:01 8.92240 -163.32379 34973 ft 450 kts 205°
2026-05-08 00:02 8.87387 -163.34386 34971 ft 450 kts 204°
2026-05-08 00:02 8.80652 -163.37170 34971 ft 450 kts 204°
2026-05-08 00:03 8.75796 -163.39177 34971 ft 450 kts 204°
2026-05-08 00:03 8.70003 -163.41569 34969 ft 450 kts 204°
2026-05-08 00:04 8.64250 -163.43945 34973 ft 450 kts 204°
2026-05-08 00:04 8.58450 -163.46340 34971 ft 450 kts 204°
2026-05-08 00:05 8.52637 -163.48738 34970 ft 450 kts 204°
2026-05-08 00:05 8.46849 -163.51126 34972 ft 450 kts 204°
2026-05-08 00:06 8.41066 -163.53511 34970 ft 450 kts 204°
2026-05-08 00:06 8.35269 -163.55901 34966 ft 450 kts 205°
2026-05-08 00:07 8.29480 -163.58287 34968 ft 449 kts 204°
2026-05-08 00:07 8.23681 -163.60676 34964 ft 450 kts 205°
2026-05-08 00:08 8.17892 -163.63060 34962 ft 450 kts 204°
2026-05-08 00:08 8.12121 -163.65436 34962 ft 450 kts 204°
2026-05-08 00:09 8.06320 -163.67823 34962 ft 450 kts 204°
2026-05-08 00:09 8.00523 -163.70209 34960 ft 450 kts 205°
2026-05-08 00:10 7.94733 -163.72590 34964 ft 450 kts 205°
2026-05-08 00:10 7.88925 -163.74979 34962 ft 450 kts 204°
2026-05-08 00:11 7.83120 -163.77366 34960 ft 450 kts 204°
2026-05-08 00:11 7.77312 -163.79752 34961 ft 450 kts 205°
2026-05-08 00:12 7.71520 -163.82131 34962 ft 451 kts 204°
2026-05-08 00:12 7.65715 -163.84516 34962 ft 450 kts 204°
2026-05-08 00:13 7.59914 -163.86898 34961 ft 450 kts 204°
2026-05-08 00:13 7.54112 -163.89279 34962 ft 450 kts 204°
2026-05-08 00:14 7.48311 -163.91660 34963 ft 450 kts 204°
2026-05-08 00:14 7.42503 -163.94042 34963 ft 450 kts 204°
2026-05-08 00:15 7.36740 -163.96406 34963 ft 450 kts 204°
2026-05-08 00:15 7.30930 -163.98788 34961 ft 450 kts 204°
2026-05-08 00:16 7.25130 -164.01167 34953 ft 451 kts 204°
2026-05-08 00:16 7.19322 -164.03546 34954 ft 451 kts 204°
2026-05-08 00:17 7.13493 -164.05934 34952 ft 452 kts 204°
2026-05-08 00:17 7.07666 -164.08320 34956 ft 452 kts 204°
2026-05-08 00:18 7.01842 -164.10705 34950 ft 452 kts 204°
2026-05-08 00:18 6.96015 -164.13090 34953 ft 452 kts 204°
2026-05-08 00:19 6.90191 -164.15473 34954 ft 452 kts 204°
2026-05-08 00:19 6.84397 -164.17844 34951 ft 452 kts 204°
2026-05-08 00:20 6.78567 -164.20228 34951 ft 452 kts 204°
2026-05-08 00:20 6.72731 -164.22615 34954 ft 453 kts 204°
2026-05-08 00:21 6.66886 -164.25004 34952 ft 453 kts 204°
2026-05-08 00:21 6.61056 -164.27387 34951 ft 453 kts 204°
2026-05-08 00:22 6.55242 -164.29762 34953 ft 453 kts 204°
2026-05-08 00:22 6.49406 -164.32146 34952 ft 453 kts 204°
2026-05-08 00:23 6.43566 -164.34531 34953 ft 453 kts 204°
2026-05-08 00:23 6.37703 -164.36925 34953 ft 453 kts 204°
2026-05-08 00:24 6.31893 -164.39297 34950 ft 453 kts 204°
2026-05-08 00:24 6.26045 -164.41683 34955 ft 453 kts 204°
2026-05-08 00:25 6.20206 -164.44065 34954 ft 453 kts 204°
2026-05-08 00:25 6.14401 -164.46433 34954 ft 453 kts 204°
2026-05-08 00:26 6.08571 -164.48810 34952 ft 453 kts 204°
2026-05-08 00:26 6.02738 -164.51188 34951 ft 453 kts 204°
2026-05-08 00:27 5.96880 -164.53575 34940 ft 453 kts 204°
2026-05-08 00:27 5.91044 -164.55954 34947 ft 453 kts 204°
2026-05-08 00:28 5.85227 -164.58324 34944 ft 453 kts 204°
2026-05-08 00:28 5.79392 -164.60700 34944 ft 453 kts 204°
2026-05-08 00:29 5.73558 -164.63076 34942 ft 453 kts 204°
2026-05-08 00:29 5.67690 -164.65465 34947 ft 453 kts 204°
2026-05-08 00:30 5.61871 -164.67834 34942 ft 453 kts 204°
2026-05-08 00:30 5.56027 -164.70212 34943 ft 453 kts 204°
2026-05-08 00:31 5.50181 -164.72591 34940 ft 453 kts 204°
2026-05-08 00:31 5.44326 -164.74972 34944 ft 453 kts 204°
2026-05-08 00:32 5.38477 -164.77351 34942 ft 453 kts 204°
2026-05-08 00:32 5.32630 -164.79729 34939 ft 453 kts 204°
2026-05-08 00:33 5.26814 -164.82093 34944 ft 453 kts 204°
2026-05-08 00:33 5.20973 -164.84467 34942 ft 454 kts 204°
2026-05-08 00:34 5.15121 -164.86845 34945 ft 454 kts 204°
2026-05-08 00:34 5.09266 -164.89224 34947 ft 453 kts 204°
2026-05-08 00:35 5.03409 -164.91603 34939 ft 454 kts 204°
2026-05-08 00:35 4.97560 -164.93978 34944 ft 454 kts 204°
2026-05-08 00:36 4.91708 -164.96354 34946 ft 454 kts 204°
2026-05-08 00:36 4.85856 -164.98730 34943 ft 454 kts 204°
2026-05-08 00:37 4.80005 -165.01105 34928 ft 454 kts 204°
2026-05-08 00:38 4.71234 -165.04664 34917 ft 454 kts 204°
2026-05-08 00:38 4.65376 -165.07041 34915 ft 454 kts 204°
2026-05-08 00:39 4.59516 -165.09418 34916 ft 454 kts 204°
2026-05-08 00:39 4.53667 -165.11790 34915 ft 454 kts 204°
2026-05-08 00:40 4.47853 -165.14148 34915 ft 454 kts 204°
2026-05-08 00:40 4.41998 -165.16521 34916 ft 454 kts 204°
2026-05-08 00:41 4.36140 -165.18896 34915 ft 454 kts 204°
2026-05-08 00:41 4.30279 -165.21271 34915 ft 454 kts 204°
2026-05-08 00:42 4.24422 -165.23645 34916 ft 455 kts 204°
2026-05-08 00:42 4.18558 -165.26021 34916 ft 455 kts 204°
2026-05-08 00:43 4.12694 -165.28396 34915 ft 455 kts 204°
2026-05-08 00:43 4.06831 -165.30770 34915 ft 455 kts 204°
2026-05-08 00:44 4.01954 -165.32745 34917 ft 454 kts 204°
2026-05-08 00:44 3.96091 -165.35119 34916 ft 455 kts 204°
2026-05-08 00:45 3.90224 -165.37495 34916 ft 455 kts 204°
2026-05-08 00:45 3.84359 -165.39869 34916 ft 455 kts 204°
2026-05-08 00:46 3.78497 -165.42241 34916 ft 455 kts 204°
2026-05-08 00:46 3.72626 -165.44616 34916 ft 455 kts 204°
2026-05-08 00:47 3.66760 -165.46990 34916 ft 455 kts 204°
2026-05-08 00:47 3.60890 -165.49365 34916 ft 455 kts 204°
2026-05-08 00:48 3.55037 -165.51732 34916 ft 455 kts 204°
2026-05-08 00:48 3.49170 -165.54105 34916 ft 455 kts 204°
2026-05-08 00:49 3.43305 -165.56477 34916 ft 455 kts 204°
2026-05-08 00:49 3.37431 -165.58852 34915 ft 455 kts 204°
2026-05-08 00:50 3.31575 -165.61219 34915 ft 455 kts 204°
2026-05-08 00:50 3.25703 -165.63593 34916 ft 455 kts 204°
2026-05-08 00:51 3.19819 -165.65971 34917 ft 455 kts 204°
2026-05-08 00:51 3.13951 -165.68342 34915 ft 455 kts 204°
2026-05-08 00:52 3.08122 -165.70698 34917 ft 455 kts 204°
2026-05-08 00:52 3.02240 -165.73074 34915 ft 455 kts 204°
2026-05-08 00:53 2.96364 -165.75447 34915 ft 455 kts 204°
2026-05-08 00:53 2.90489 -165.77821 34915 ft 455 kts 204°
2026-05-08 00:54 2.84617 -165.80192 34916 ft 455 kts 204°
2026-05-08 00:54 2.78808 -165.82539 34914 ft 455 kts 204°
2026-05-08 00:55 2.72963 -165.84899 34917 ft 456 kts 204°
2026-05-08 00:55 2.67080 -165.87274 34915 ft 455 kts 204°
2026-05-08 00:56 2.61216 -165.89641 34916 ft 456 kts 204°
2026-05-08 00:56 2.55334 -165.92015 34916 ft 456 kts 204°
2026-05-08 00:57 2.49455 -165.94387 34915 ft 456 kts 204°
2026-05-08 00:57 2.43576 -165.96760 34917 ft 456 kts 204°
2026-05-08 00:58 2.37698 -165.99131 34916 ft 456 kts 204°
2026-05-08 00:58 2.31808 -166.01508 34914 ft 456 kts 204°
2026-05-08 00:59 2.25916 -166.03885 34914 ft 457 kts 204°
2026-05-08 00:59 2.20017 -166.06264 34916 ft 457 kts 204°
2026-05-08 01:00 2.14124 -166.08641 34915 ft 457 kts 204°
2026-05-08 01:00 2.08227 -166.11020 34916 ft 457 kts 204°
2026-05-08 01:01 2.02335 -166.13396 34915 ft 457 kts 204°
2026-05-08 01:01 1.96453 -166.15768 34916 ft 457 kts 204°
2026-05-08 01:02 1.90593 -166.18131 34898 ft 456 kts 204°
2026-05-08 01:02 1.84695 -166.20509 34897 ft 457 kts 204°
2026-05-08 01:03 1.78802 -166.22884 34896 ft 457 kts 204°
2026-05-08 01:03 1.72916 -166.25257 34898 ft 457 kts 204°
2026-05-08 01:04 1.67021 -166.27633 34897 ft 457 kts 204°
2026-05-08 01:04 1.61125 -166.30010 34897 ft 457 kts 204°
2026-05-08 01:05 1.55227 -166.32387 34896 ft 457 kts 204°
2026-05-08 01:05 1.49341 -166.34759 34897 ft 457 kts 204°
2026-05-08 01:06 1.43443 -166.37136 34897 ft 457 kts 204°
2026-05-08 01:06 1.37540 -166.39515 34896 ft 457 kts 204°
2026-05-08 01:07 1.31642 -166.41892 34897 ft 457 kts 204°
2026-05-08 01:07 1.25784 -166.44252 34890 ft 458 kts 204°
2026-05-08 01:08 1.19880 -166.46631 34897 ft 457 kts 204°
2026-05-08 01:08 1.13972 -166.49012 34897 ft 457 kts 204°
2026-05-08 01:09 1.08065 -166.51391 34897 ft 458 kts 203°
2026-05-08 01:09 1.02167 -166.53767 34897 ft 458 kts 203°
2026-05-08 01:10 0.96261 -166.56147 34897 ft 458 kts 203°
2026-05-08 01:10 0.90350 -166.58528 34897 ft 458 kts 203°
2026-05-08 01:11 0.84439 -166.60909 34895 ft 458 kts 203°
2026-05-08 01:11 0.78540 -166.63286 34897 ft 458 kts 203°
2026-05-08 01:12 0.72631 -166.65665 34897 ft 458 kts 203°
2026-05-08 01:12 0.66757 -166.68031 34897 ft 458 kts 203°
2026-05-08 01:13 0.60840 -166.70415 34895 ft 458 kts 203°
2026-05-08 01:13 0.54939 -166.72791 34896 ft 458 kts 203°
2026-05-08 01:14 0.49022 -166.75174 34897 ft 458 kts 203°
2026-05-08 01:14 0.43105 -166.77557 34897 ft 458 kts 203°
2026-05-08 01:15 0.37186 -166.79941 34897 ft 458 kts 203°
2026-05-08 01:15 0.31287 -166.82317 34897 ft 458 kts 203°
2026-05-08 01:16 0.25369 -166.84701 34898 ft 458 kts 203°
2026-05-08 01:16 0.19494 -166.87066 34894 ft 458 kts 203°
2026-05-08 01:17 0.13572 -166.89452 34897 ft 458 kts 203°
2026-05-08 01:17 0.07670 -166.91829 34902 ft 459 kts 203°
2026-05-08 01:18 0.01744 -166.94215 34906 ft 458 kts 203°
2026-05-08 01:18 -0.04182 -166.96601 34906 ft 459 kts 202°
2026-05-08 01:19 -0.10103 -166.98985 34904 ft 459 kts 202°
2026-05-08 01:19 -0.16010 -167.01365 34906 ft 459 kts 202°
2026-05-08 01:20 -0.21894 -167.03734 34906 ft 459 kts 202°
2026-05-08 01:20 -0.27811 -167.06118 34908 ft 459 kts 202°
2026-05-08 01:21 -0.33732 -167.08502 34907 ft 459 kts 202°
2026-05-08 01:21 -0.39639 -167.10881 34907 ft 459 kts 202°
2026-05-08 01:22 -0.45560 -167.13265 34906 ft 459 kts 202°
2026-05-08 01:22 -0.51484 -167.15652 34906 ft 459 kts 202°
2026-05-08 01:23 -0.57408 -167.18038 34908 ft 459 kts 202°
2026-05-08 01:23 -0.63323 -167.20420 34905 ft 459 kts 202°
2026-05-08 01:24 -0.69239 -167.22803 34907 ft 458 kts 202°
2026-05-08 01:24 -0.75155 -167.25186 34907 ft 458 kts 202°
2026-05-08 01:25 -0.81076 -167.27570 34906 ft 458 kts 202°
2026-05-08 01:25 -0.86983 -167.29951 34906 ft 459 kts 202°
2026-05-08 01:26 -0.92904 -167.32335 34907 ft 458 kts 202°
2026-05-08 01:26 -0.98818 -167.34718 34905 ft 459 kts 202°
2026-05-08 01:27 -1.04734 -167.37101 34906 ft 458 kts 202°
2026-05-08 01:27 -1.10648 -167.39484 34906 ft 458 kts 202°
2026-05-08 01:28 -1.15558 -167.41462 34910 ft 458 kts 202°
2026-05-08 01:28 -1.21484 -167.43849 34906 ft 458 kts 202°
2026-05-08 01:29 -1.27404 -167.46235 34907 ft 458 kts 202°
2026-05-08 01:29 -1.33320 -167.48619 34904 ft 458 kts 202°
2026-05-08 01:30 -1.39226 -167.50999 34906 ft 458 kts 202°
2026-05-08 01:30 -1.45145 -167.53384 34907 ft 458 kts 202°
2026-05-08 01:31 -1.51007 -167.55746 34906 ft 457 kts 202°
2026-05-08 01:31 -1.56912 -167.58126 34906 ft 458 kts 202°
2026-05-08 01:32 -1.62816 -167.60506 34906 ft 458 kts 202°
2026-05-08 01:32 -1.68728 -167.62889 34906 ft 458 kts 202°
2026-05-08 01:33 -1.74625 -167.65266 34907 ft 458 kts 202°
2026-05-08 01:33 -1.80536 -167.67649 34906 ft 458 kts 202°
2026-05-08 01:34 -1.86449 -167.70033 34907 ft 458 kts 202°
2026-05-08 01:34 -1.92355 -167.72414 34906 ft 458 kts 202°
2026-05-08 01:35 -1.98249 -167.74791 34906 ft 458 kts 202°
2026-05-08 01:35 -2.04167 -167.77177 34907 ft 457 kts 202°
2026-05-08 01:36 -2.10070 -167.79558 34911 ft 458 kts 202°
2026-05-08 01:36 -2.15976 -167.81940 34907 ft 458 kts 202°
2026-05-08 01:37 -2.21873 -167.84319 34906 ft 457 kts 202°
2026-05-08 01:37 -2.27743 -167.86687 34905 ft 458 kts 202°
2026-05-08 01:38 -2.33653 -167.89071 34906 ft 458 kts 202°
2026-05-08 01:38 -2.39562 -167.91456 34906 ft 458 kts 202°
2026-05-08 01:39 -2.45455 -167.93833 34906 ft 457 kts 202°
2026-05-08 01:39 -2.51358 -167.96215 34907 ft 457 kts 202°
2026-05-08 01:40 -2.57254 -167.98595 34906 ft 457 kts 202°
2026-05-08 01:40 -2.63155 -168.00976 34906 ft 457 kts 202°
2026-05-08 01:41 -2.69047 -168.03355 34904 ft 457 kts 202°
2026-05-08 01:41 -2.74913 -168.05723 34907 ft 457 kts 202°
2026-05-08 01:42 -2.80846 -168.08119 34905 ft 457 kts 202°
2026-05-08 01:42 -2.86700 -168.10482 34906 ft 457 kts 202°
2026-05-08 01:43 -2.92588 -168.12860 34906 ft 457 kts 202°
2026-05-08 01:43 -2.98479 -168.15239 34908 ft 456 kts 202°
2026-05-08 01:44 -3.04372 -168.17619 34906 ft 457 kts 202°
2026-05-08 01:44 -3.10266 -168.20001 34906 ft 456 kts 202°
2026-05-08 01:45 -3.16142 -168.22375 34907 ft 456 kts 202°
2026-05-08 01:45 -3.22024 -168.24751 34906 ft 456 kts 202°
2026-05-08 01:46 -3.27911 -168.27131 34907 ft 456 kts 202°
2026-05-08 01:46 -3.33803 -168.29512 34906 ft 456 kts 202°
2026-05-08 01:47 -3.39631 -168.31868 34907 ft 455 kts 202°
2026-05-08 01:47 -3.45503 -168.34242 34906 ft 455 kts 202°
2026-05-08 01:48 -3.54329 -168.37811 34907 ft 455 kts 202°
2026-05-08 01:48 -3.60190 -168.40181 34907 ft 455 kts 202°
2026-05-08 01:49 -3.66069 -168.42559 34907 ft 455 kts 202°
2026-05-08 01:49 -3.71934 -168.44932 34906 ft 454 kts 202°
2026-05-08 01:50 -3.77763 -168.47290 34906 ft 455 kts 202°
2026-05-08 01:50 -3.83622 -168.49661 34906 ft 455 kts 202°
2026-05-08 01:51 -3.89490 -168.52035 34906 ft 454 kts 202°
2026-05-08 01:51 -3.95349 -168.54407 34906 ft 455 kts 202°
2026-05-08 01:52 -4.01217 -168.56783 34906 ft 454 kts 202°
2026-05-08 01:52 -4.07066 -168.59151 34907 ft 454 kts 202°
2026-05-08 01:53 -4.12934 -168.61527 34890 ft 454 kts 202°
2026-05-08 01:53 -4.18797 -168.63902 34888 ft 455 kts 202°
2026-05-08 01:54 -4.24667 -168.66280 34888 ft 455 kts 202°
2026-05-08 01:54 -4.30493 -168.68640 34888 ft 455 kts 202°
2026-05-08 01:55 -4.36366 -168.71020 34887 ft 455 kts 202°
2026-05-08 01:55 -4.42242 -168.73401 34887 ft 455 kts 202°
2026-05-08 01:56 -4.48107 -168.75779 34888 ft 455 kts 202°
2026-05-08 01:56 -4.53968 -168.78155 34888 ft 455 kts 202°
2026-05-08 01:57 -4.59832 -168.80533 34887 ft 455 kts 202°
2026-05-08 01:57 -4.65702 -168.82913 34889 ft 455 kts 202°
2026-05-08 01:58 -4.71572 -168.85295 34887 ft 455 kts 202°
2026-05-08 01:58 -4.77439 -168.87675 34889 ft 455 kts 202°
2026-05-08 01:59 -4.83303 -168.90055 34887 ft 454 kts 202°
2026-05-08 01:59 -4.89166 -168.92434 34887 ft 455 kts 202°
2026-05-08 02:00 -4.95031 -168.94814 34887 ft 455 kts 202°
2026-05-08 02:00 -5.00883 -168.97217 34887 ft 455 kts 203°
2026-05-08 02:01 -5.06719 -168.99676 34887 ft 455 kts 202°
2026-05-08 02:01 -5.12552 -169.02126 34888 ft 455 kts 202°
2026-05-08 02:02 -5.18356 -169.04565 34888 ft 455 kts 202°
2026-05-08 02:02 -5.24185 -169.07015 34884 ft 455 kts 202°
2026-05-08 02:03 -5.30025 -169.09469 34888 ft 455 kts 202°
2026-05-08 02:03 -5.35860 -169.11922 34885 ft 455 kts 202°
2026-05-08 02:04 -5.41694 -169.14375 34888 ft 455 kts 202°
2026-05-08 02:04 -5.47523 -169.16827 34888 ft 455 kts 202°
2026-05-08 02:05 -5.53359 -169.19282 34887 ft 455 kts 202°
2026-05-08 02:05 -5.59194 -169.21737 34888 ft 455 kts 202°
2026-05-08 02:06 -5.65028 -169.24192 34888 ft 455 kts 202°
2026-05-08 02:06 -5.70859 -169.26647 34888 ft 455 kts 202°
2026-05-08 02:07 -5.76702 -169.29107 34888 ft 455 kts 202°
2026-05-08 02:07 -5.82494 -169.31546 34888 ft 455 kts 203°
2026-05-08 02:08 -5.88333 -169.34006 34887 ft 455 kts 202°
2026-05-08 02:08 -5.94154 -169.36458 34888 ft 454 kts 203°
2026-05-08 02:09 -5.99994 -169.38919 34887 ft 455 kts 203°
2026-05-08 02:09 -6.05826 -169.41377 34887 ft 454 kts 202°
2026-05-08 02:10 -6.11656 -169.43835 34888 ft 455 kts 203°
2026-05-08 02:10 -6.17482 -169.46292 34888 ft 454 kts 203°
2026-05-08 02:11 -6.23314 -169.48752 34887 ft 454 kts 203°
2026-05-08 02:11 -6.29147 -169.51213 34888 ft 454 kts 203°
2026-05-08 02:12 -6.33989 -169.53257 34888 ft 454 kts 203°
2026-05-08 02:12 -6.39819 -169.55718 34888 ft 454 kts 203°
2026-05-08 02:13 -6.45650 -169.58179 34898 ft 454 kts 203°
2026-05-08 02:13 -6.51475 -169.60639 34896 ft 454 kts 203°
2026-05-08 02:14 -6.57299 -169.63100 34897 ft 454 kts 203°
2026-05-08 02:14 -6.63118 -169.65558 34897 ft 454 kts 203°
2026-05-08 02:15 -6.68935 -169.68016 34898 ft 454 kts 203°
2026-05-08 02:15 -6.74757 -169.70478 34897 ft 454 kts 203°
2026-05-08 02:16 -6.80578 -169.72939 34897 ft 454 kts 203°
2026-05-08 02:16 -6.86397 -169.75400 34897 ft 453 kts 203°
2026-05-08 02:17 -6.92209 -169.77859 34899 ft 453 kts 203°
2026-05-08 02:17 -6.97991 -169.80306 34897 ft 453 kts 203°
2026-05-08 02:18 -7.03799 -169.82765 34898 ft 453 kts 203°
2026-05-08 02:18 -7.09605 -169.85223 34897 ft 453 kts 203°
2026-05-08 02:19 -7.15416 -169.87684 34897 ft 453 kts 203°
2026-05-08 02:19 -7.21228 -169.90147 34897 ft 453 kts 203°
2026-05-08 02:20 -7.27038 -169.92609 34896 ft 452 kts 203°
2026-05-08 02:20 -7.32830 -169.95064 34897 ft 452 kts 203°
2026-05-08 02:21 -7.38641 -169.97528 34896 ft 452 kts 203°
2026-05-08 02:21 -7.44440 -169.99987 34898 ft 452 kts 203°
2026-05-08 02:22 -7.50245 -170.02450 34896 ft 453 kts 203°
2026-05-08 02:22 -7.56042 -170.04911 34897 ft 453 kts 203°
2026-05-08 02:23 -7.61852 -170.07377 34897 ft 453 kts 203°
2026-05-08 02:23 -7.67628 -170.09830 34897 ft 453 kts 203°
2026-05-08 02:24 -7.73431 -170.12294 34896 ft 452 kts 203°
2026-05-08 02:24 -7.79234 -170.14760 34897 ft 453 kts 203°
2026-05-08 02:25 -7.85036 -170.17226 34897 ft 452 kts 203°
2026-05-08 02:25 -7.90834 -170.19691 34897 ft 452 kts 203°
2026-05-08 02:26 -7.96635 -170.22158 34896 ft 452 kts 203°
2026-05-08 02:26 -8.02430 -170.24623 34897 ft 452 kts 203°
2026-05-08 02:27 -8.08227 -170.27090 34897 ft 452 kts 203°
2026-05-08 02:27 -8.14030 -170.29560 34898 ft 452 kts 203°
2026-05-08 02:28 -8.19827 -170.32028 34897 ft 452 kts 203°
2026-05-08 02:28 -8.25616 -170.34494 34896 ft 452 kts 203°
2026-05-08 02:29 -8.31419 -170.36967 34897 ft 452 kts 203°
2026-05-08 02:29 -8.37214 -170.39437 34895 ft 452 kts 203°
2026-05-08 02:30 -8.43013 -170.41909 34897 ft 452 kts 203°
2026-05-08 02:30 -8.48802 -170.44378 34897 ft 452 kts 203°
2026-05-08 02:31 -8.54598 -170.46850 34895 ft 452 kts 203°
2026-05-08 02:31 -8.60395 -170.49324 34897 ft 452 kts 203°
2026-05-08 02:32 -8.66157 -170.51784 34899 ft 452 kts 203°
2026-05-08 02:32 -8.71939 -170.54253 34896 ft 452 kts 203°
2026-05-08 02:33 -8.77735 -170.56730 34897 ft 452 kts 203°
2026-05-08 02:33 -8.83535 -170.59208 34900 ft 452 kts 203°
2026-05-08 02:34 -8.89326 -170.61684 34897 ft 452 kts 203°
2026-05-08 02:34 -8.95110 -170.64157 34898 ft 452 kts 203°
2026-05-08 02:35 -9.00901 -170.66634 34896 ft 452 kts 203°
2026-05-08 02:35 -9.06692 -170.69112 34895 ft 452 kts 203°
2026-05-08 02:36 -9.12479 -170.71590 34898 ft 452 kts 203°
2026-05-08 02:36 -9.18258 -170.74065 34904 ft 452 kts 203°
2026-05-08 02:37 -9.24044 -170.76544 34907 ft 451 kts 204°
2026-05-08 02:37 -9.29825 -170.79021 34904 ft 451 kts 204°
2026-05-08 02:38 -9.35607 -170.81500 34907 ft 451 kts 204°
2026-05-08 02:38 -9.41382 -170.83976 34906 ft 451 kts 204°
2026-05-08 02:39 -9.47167 -170.86458 34906 ft 451 kts 204°
2026-05-08 02:39 -9.52946 -170.88938 34909 ft 451 kts 204°
2026-05-08 02:40 -9.58737 -170.91424 34906 ft 451 kts 204°
2026-05-08 02:40 -9.64511 -170.93904 34907 ft 451 kts 204°
2026-05-08 02:41 -9.70294 -170.96388 34909 ft 451 kts 204°
2026-05-08 02:41 -9.76083 -170.98876 34907 ft 451 kts 204°
2026-05-08 02:42 -9.81859 -171.01360 34906 ft 451 kts 204°
2026-05-08 02:42 -9.87625 -171.03839 34906 ft 450 kts 204°
2026-05-08 02:43 -9.93407 -171.06327 34907 ft 452 kts 204°